Regional Weather Roundup
Issued by NWS

Home | Current Version | Previous Version | Text Only | Print | Product List | Glossary On
Versions: 1 2 3 4 5 6 7 8 9 10 11 12 13 14 15 16 17 18 19 20 21 22 23 24 25 26 27 28 29 30 31 32 33 34 35 36 37 38 39 40 41 42 43 44 45 46 47 48 49 50
000
ASUS43 KDTX 242301
RWRMI
MICHIGAN HOURLY REGIONAL WEATHER ROUNDUP
NATIONAL WEATHER SERVICE DETROIT/PONTIAC MI
600 PM EST MON NOV 24 2014

NOTE: "FAIR" INDICATES FEW OR NO CLOUDS BELOW 12,000 FEET WITH NO
SIGNIFICANT WEATHER AND/OR OBSTRUCTION TO VISIBILITY.

MIZ047>049-052>055-059>063-066>070-074>076-081>083-250000-
SOUTHEAST LOWER MICHIGAN

CITY           SKY/WX    TMP DP  RH WIND       PRES   REMARKS
ADRIAN         CLOUDY    36  29  75 W22G44    29.56R WCI  25
ALMA           CLOUDY    35  32  90 SW25G43   29.39R WCI  22
ANN ARBOR      CLOUDY    38  30  73 SW22G37   29.51R WCI  27
BAD AXE        MIX PCPN  37  34  91 SW22G41   29.34R WCI  26
DETROIT CITY   CLOUDY    42  31  64 SW36G48   29.48R
DETROIT        CLOUDY    39  30  70 SW26G44   29.52R WCI  28
FLINT          CLOUDY    39  30  70 SW24G35   29.44R WCI  28
GROSSE ILE     CLOUDY    39  30  70 SW25G43   29.53R WCI  28
HOWELL         CLOUDY    36  31  81 SW22G38   29.46R WCI  24

CITY           SKY/WX    TMP DP  RH WIND       PRES   REMARKS
JACKSON        CLOUDY    35  29  78 SW26G37   29.50R WCI  22
LAMBERTVILLE   CLOUDY    37  28  70 SW22G43   29.59R WCI  27
LANSING        FLURRIES  35  29  78 SW31G43   29.46R WCI  22
LAPEER         DRIZZLE   38  32  79 SW20G30   29.41R WCI  28
MASON          CLOUDY    36  30  80 SW17G26   29.48R WCI  25
MONROE         CLOUDY    39  28  65 SW35G44   29.55R WCI  27
MT. CLEMENS    CLOUDY    40  34  77 SW28G39   29.45R WCI  29
PONTIAC        LGT RAIN N/A N/A N/A SW23G32   29.44R
PORT HOPE        N/A     38  33  82 SW22G40   29.28R WCI  27
PORT HURON     CLOUDY    41  32  70 SW17G33   29.45R
TRI CITIES     CLOUDY    38  31  76 SW36G44   29.36R WCI  25
TROY           CLOUDY    41  31  68 SW28G36   29.49R
SAGINAW HB     CLOUDY    37  32  81 SW35G46   29.38R WCI  24
$$
MIZ043>046-050>051-056>058-064>065-071>073-077>080-250000-
SOUTHWEST LOWER MICHIGAN

CITY           SKY/WX    TMP DP  RH WIND       PRES   REMARKS
BATTLE CREEK   CLOUDY    35  29  78 SW31G43   29.50R WCI  22
BENTON HARBOR  FLURRIES  32  27  81 W29G41    29.56R WCI  18
BIG RAPIDS     LGT SNOW  33  33  98 SW17G26   29.31R VSB 3/4 WCI  23
COLDWATER      CLOUDY    35  31  84 SW28G37   29.55R WCI  22
FREMONT        LGT SNOW  32  32  99 SW21G38   29.36R WCI  20
HOLLAND        MIX PCPN  35  29  78 SW26G46   29.48R WCI  22
GRAND RAPIDS   FLURRIES  34  33  96 SW32G49   29.44R WCI  20
IONIA          CLOUDY    35  32  88 SW32G44   29.42R WCI  21
KALAMAZOO      MIX PCPN  34  28  79 SW18G29   29.53R WCI  23
LUDINGTON      LGT SNOW  34  33  95 SW21G29   29.31R WCI  23
MARSHALL       MIX PCPN  33  31  92 SW28G35   29.51R WCI  19
MOUNT PLEASANT LGT SNOW  33  32  94 SW16G23   29.34R WCI  23
MUSKEGON       LGT SNOW  34  30  85 SW29G44   29.42R FOG     WCI  20
SOUTH HAVEN    LGT SNOW  34  30  84 W24G33    29.52R WCI  22
$$
MIZ016>042-250000-
NORTHERN LOWER MICHIGAN

CITY           SKY/WX    TMP DP  RH WIND       PRES   REMARKS
ALPENA         LGT RAIN  45  41  86 W5        29.13R
BEAVER ISLAND  LGT SNOW  34  31  88 NW8G18    29.20R WCI  28
BELLAIRE       LGT SNOW  36  34  92 NW5       29.21R WCI  32
CADILLAC       LGT SNOW  35  33  94 SW18G28   29.22R WCI  24
CHARLEVOIX     LGT RAIN  35  35  99 NW9       29.23R WCI  27
FRANKFORT      MIX PCPN  34  33  97 NW6       29.26R WCI  29
GAYLORD        LGT RAIN  36  35  96 W7        29.16R WCI  30
GRAYLING       MIX PCPN  41  40  99 W10       29.19R
HARBOR SPRINGS LGT RAIN  35  34  95 W3        29.18R
HOUGHTON LAKE  LGT RAIN  37  35  92 SW21G30   29.22R WCI  26
MANISTEE       CLOUDY    36  32  87 NW9G16    29.27R WCI  29
OSCODA         LGT RAIN  38  36  92 SW30G38   29.22R WCI  25
PELLSTON       LGT RAIN  36  33  89 W10       29.17R WCI  28
ROGERS CITY    RAIN      42  42  99 W8        29.15R
TRAVERSE CITY  LGT RAIN  36  33  89 NW9       29.22R FOG     WCI  29
$$
MIZ007>008-015-250000-
EASTERN UPPER MICHIGAN

CITY           SKY/WX    TMP DP  RH WIND       PRES   REMARKS
KINROSS        CLOUDY    36  36 100 NW14      29.12R WCI  27
MACKINAC ISLAN CLOUDY    37  36  99 W9        29.14R WCI  30
NEWBERRY       CLOUDY    32  31  96 NW13G18   29.15R WCI  22
S. S. MARIE    CLOUDY    37  36  96 W9        29.10R WCI  30
MUNISING         N/A     33  28  81 N23       29.25R WCI  21
$$
MIZ004>006-011>014-085-250000-
CENTRAL UPPER MICHIGAN

CITY           SKY/WX    TMP DP  RH WIND       PRES   REMARKS
MANISTIQUE     CLOUDY    32  28  87 NW13G26   29.19R WCI  22
ESCANABA       CLOUDY    30  25  80 NW14G20   29.26R WCI  20
MENOMINEE      CLOUDY    30  27  86 NW9       29.31R WCI  22
SAWYER-GWINN   CLOUDY    27  23  86 NW17G28   29.26R WCI  14
$$
MIZ001>003-009>011-084-250000-
WESTERN UPPER MICHIGAN

CITY           SKY/WX    TMP DP  RH WIND       PRES   REMARKS
IRON MOUNTAIN  LGT SNOW  27  23  85 NW15      29.29R FOG     WCI  15
HOUGHTON       FOG       24  20  84 N20G30    29.37R VSB 1   WCI  10
COPPER HARBOR    N/A     29  25  85 NE25G38   29.36R WCI  14
IRONWOOD       CLOUDY    21  19  93 N16G22    29.44R WCI   7
$$

ABBREVIATIONS USED IN REMARKS
   TC - TEMPERATURE IN CELSIUS
  WCI - WIND CHILL INDEX
   HX - HEAT INDEX
  VSB - VISIBILITY




USA.gov is the U.S. government's official web portal to all federal, state and local government web resources and services.